Weather History for Cocoa Beach, FL

Change the Weather History Date:

Tuesday, March 5, 2013

  Actual Average Record
Temperature  
Mean Temperature 58 °F -  
Max Temperature 70 °F 72 °F 82 °F (2003)
Min Temperature 47 °F 59 °F 44 °F (2002)
Degree Days  
Heating Degree Days 6    
Growing Degree Days 8 (Base 50)    
Moisture  
Dew Point 49 °F    
Average Humidity 67    
Maximum Humidity 88    
Minimum Humidity 38    
Precipitation  
Precipitation 0.00 in - - ()
Sea Level Pressure  
Sea Level Pressure 30.13 in    
Wind  
Wind Speed 8 mph (South)    
Max Wind Speed 18 mph    
Max Gust Speed -    
Visibility 10 miles    
Events      
Averages and records for this station are not official NWS values.
T = Trace of Precipitation, MM = Missing Value Source: NWS Daily Summary

Daily Weather History Graph

Daily Weather History Graph

Search for Another Location

Airport:

Trip Planner

Search our weather history database for the weather conditions in past years. The results will help you decide how hot, cold, wet, or windy it might be!

Date:

Astronomy

Mar. 05, 2013 Rise Set
Actual Time 6:42 AM EST 6:25 PM EST
Civil Twilight 6:19 AM EST 6:48 PM EST
Nautical Twilight 5:51 AM EST 7:16 PM EST
Astronomical Twilight 5:24 AM EST 7:43 PM EST
Moon 1:32 AM EST (3/5) 12:24 PM EST (3/5)
Length of Visible Light 12h 29m
Length of Day
11h 42m
Last Quarter, 41% of the Moon is Illuminated
Mar 5
Last Quarter
Mar 11
New
Mar 19
First Quarter
Mar 27
Full
Apr 3
Last Quarter

Hourly Weather History & Observations

Time (EST) Temp. Dew Point Humidity Pressure Visibility Wind Dir Wind Speed Gust Speed Precip Events Conditions
12:55 AM 55.0 °F 42.8 °F 63% 30.17 in 10.0 mi SSE 3.5 mph - N/A   Clear
1:55 AM 52.2 °F 42.6 °F 70% 30.16 in 10.0 mi South 4.6 mph - N/A   Clear
2:55 AM 52.0 °F 46.9 °F 83% 30.15 in 10.0 mi South 4.6 mph - N/A   Clear
3:55 AM 50.5 °F 46.8 °F 87% 30.16 in 10.0 mi SSW 5.8 mph - N/A   Clear
4:55 AM 47.8 °F 44.4 °F 88% 30.14 in 10.0 mi South 6.9 mph - N/A   Clear
5:55 AM 48.2 °F 44.8 °F 88% 30.16 in 10.0 mi South 8.1 mph - N/A   Clear
6:55 AM 48.7 °F 45.1 °F 87% 30.17 in 10.0 mi SSW 10.4 mph - N/A   Clear
7:55 AM 52.5 °F 47.8 °F 84% 30.20 in 9.0 mi West 9.2 mph - N/A   Clear
8:55 AM 55.9 °F 46.9 °F 72% 30.22 in 10.0 mi West 5.8 mph - N/A   Clear
9:55 AM 63.1 °F 41.5 °F 45% 30.21 in 10.0 mi West 4.6 mph - N/A   Clear
10:55 AM 67.8 °F 41.0 °F 38% 30.19 in 10.0 mi Variable 3.5 mph - N/A   Clear
11:55 AM 68.7 °F 45.0 °F 42% 30.17 in 10.0 mi East 6.9 mph - N/A   Clear
12:55 PM 69.6 °F 49.3 °F 48% 30.14 in 10.0 mi ESE 10.4 mph - N/A   Clear
1:55 PM 70.3 °F 52.2 °F 52% 30.12 in 10.0 mi SE 12.7 mph - N/A   Clear
2:55 PM 70.7 °F 54.7 °F 57% 30.09 in 10.0 mi SSE 16.1 mph - N/A   Clear
3:55 PM 70.3 °F 56.3 °F 61% 30.07 in 10.0 mi SSE 18.4 mph - N/A   Clear
4:55 PM 70.0 °F 58.3 °F 66% 30.08 in 10.0 mi SSE 13.8 mph - N/A   Clear
5:55 PM 68.5 °F 59.0 °F 72% 30.08 in 10.0 mi SSE 12.7 mph - N/A   Clear
6:55 PM 67.5 °F 58.8 °F 74% 30.06 in 10.0 mi South 13.8 mph - N/A   Clear
7:55 PM 64.6 °F 57.7 °F 78% 30.06 in 10.0 mi South 6.9 mph - N/A   Clear
8:55 PM 62.8 °F 51.6 °F 67% 30.06 in 10.0 mi SW 6.9 mph - N/A   Clear
9:55 PM 64.4 °F 47.7 °F 55% 30.06 in 10.0 mi WSW 12.7 mph - N/A   Clear
10:55 PM 62.2 °F 50.9 °F 66% 30.05 in 10.0 mi WSW 11.5 mph - N/A   Clear
11:55 PM 61.3 °F 52.7 °F 73% 30.04 in 10.0 mi WSW 11.5 mph - N/A   Clear